Terminal Aerodrome Forecast
Issued by NWS

Home | Current Version | Previous Version | Text Only | Print | Product List | Glossary On
Versions: 1 2 3 4 5 6 7 8 9 10 11 12 13
000
FTUS41 KPHI 272300
TAFPNE
TAF
KPNE 272320Z 2800/2824 25007KT P6SM SCT050
     FM280500 30005KT P6SM BKN050
     FM280700 34008KT P6SM FEW050
     FM281300 32011KT P6SM SKC
     FM281700 32012G20KT P6SM FEW040=

USA.gov is the U.S. government's official web portal to all federal, state and local government web resources and services.